This is the latest recevied weather packets stored in our database for station/object OE6PWE-13. If no packets are shown the sender has not sent any weather packets the latest 10 day(s).
| Time | Temp. | Humidity | Pressure | Rain* | Wind** | Luminosity | Snow |
|---|---|---|---|---|---|---|---|
| 1777644021 | 21.67° C | 36% | 1024 hPa | 0 mm | - | - | - |
| 1777643113 | 20° C | 39% | 1025 hPa | 0 mm | - | - | - |
| 1777642221 | 20° C | 39% | 1025 hPa | 0 mm | - | - | - |
| 1777641313 | 21.11° C | 38% | 1025 hPa | 0 mm | - | - | - |
| 1777640421 | 20.56° C | 36% | 1025 hPa | 0 mm | - | - | - |
| 1777639514 | 20° C | 39% | 1025 hPa | 0 mm | - | - | - |
| 1777638618 | 19.44° C | 40% | 1026 hPa | 0 mm | - | - | - |
| 1777637713 | 18.89° C | 38% | 1026 hPa | 0 mm | - | - | - |
| 1777636820 | 18.89° C | 39% | 1026 hPa | 0 mm | - | - | - |
| 1777635913 | 19.44° C | 39% | 1026 hPa | 0 mm | - | - | - |
| 1777635020 | 20° C | 38% | 1026 hPa | 0 mm | - | - | - |
| 1777634113 | 19.44° C | 39% | 1026 hPa | 0 mm | - | - | - |
| 1777632313 | 18.89° C | 39% | 1027 hPa | 0 mm | - | - | - |
| 1777631419 | 18.33° C | 40% | 1027 hPa | 0 mm | - | - | - |
| 1777630513 | 18.33° C | 42% | 1027 hPa | 0 mm | - | - | - |
| 1777629621 | 18.33° C | 40% | 1027 hPa | 0 mm | - | - | - |
| 1777628713 | 17.78° C | 41% | 1027 hPa | 0 mm | - | - | - |
| 1777627822 | 17.22° C | 42% | 1028 hPa | 0 mm | - | - | - |
| 1777626913 | 16.67° C | 43% | 1028 hPa | 0 mm | - | - | - |
| 1777626021 | 16.67° C | 42% | 1028 hPa | 0 mm | - | - | - |
| 1777625114 | 16.11° C | 41% | 1028 hPa | 0 mm | - | - | - |
| 1777624221 | 16.11° C | 43% | 1028 hPa | 0 mm | - | - | - |
| 1777623313 | 15.56° C | 42% | 1028 hPa | 0 mm | - | - | - |
| 1777622421 | 15° C | 43% | 1028 hPa | 0 mm | - | - | - |
| 1777621514 | 14.44° C | 42% | 1028 hPa | 0 mm | - | - | - |
* Rain latest hour (hover to see other rain measurements)
** Current wind speed in m/s (hover to see current wind gust speed)